| time (UTC) | temp C | wind direction | speed KPH | gust KPH | rain 1hr cm | rain 24hr cm | rain mn cm | humidity % | barometer mb |
| 20260510214241 | 16 | 219 | 6.4 | 14.5 | 0.00 | 0.00 | 0.00 | 38 | 1027.2 |
| 20260510213241 | 16 | 144 | 6.4 | 14.5 | 0.00 | 0.00 | 0.00 | 38 | 1027.2 |
| 20260510212242 | 16 | 205 | 8.0 | 19.3 | 0.00 | 0.00 | 0.00 | 40 | 1027.2 |
| 20260510211241 | 16 | 201 | 8.0 | 16.1 | 0.00 | 0.00 | 0.00 | 38 | 1027.2 |
| 20260510210241 | 16 | 229 | 4.8 | 12.9 | 0.00 | 0.00 | 0.00 | 39 | 1027.2 |
| 20260510205249 | 16 | 146 | 3.2 | 9.7 | 0.00 | 0.00 | 0.00 | 31 | 1027.2 |
| 20260510205242 | 16 | 190 | 0.0 | 8.0 | 0.00 | 0.00 | 0.00 | 37 | 1027.2 |
| 20260510204242 | 16 | 159 | 3.2 | 11.3 | 0.00 | 0.00 | 0.00 | 33 | 1027.3 |
| 20260510202242 | 17 | 351 | 3.2 | 9.7 | 0.00 | 0.00 | 0.00 | 30 | 1027.3 |
| 20260510201240 | 18 | 340 | 4.8 | 11.3 | 0.00 | 0.00 | 0.00 | 30 | 1027.2 |
| 20260510200242 | 17 | 180 | 3.2 | 11.3 | 0.00 | 0.00 | 0.00 | 29 | 1027.3 |
| 20260510195240 | 17 | 265 | 3.2 | 11.3 | 0.00 | 0.00 | 0.00 | 26 | 1027.2 |
| 20260510194238 | 17 | 270 | 3.2 | 12.9 | 0.00 | 0.00 | 0.00 | 23 | 1027.5 |
| 20260510193239 | 17 | 261 | 3.2 | 8.0 | 0.00 | 0.00 | 0.00 | 26 | 1027.5 |
| 20260510192240 | 16 | 30 | 3.2 | 12.9 | 0.00 | 0.00 | 0.00 | 26 | 1027.5 |
| 20260510191240 | 16 | 291 | 3.2 | 14.5 | 0.00 | 0.00 | 0.00 | 27 | 1027.5 |
| 20260510190239 | 16 | 310 | 4.8 | 11.3 | 0.00 | 0.00 | 0.00 | 32 | 1027.5 |
| 20260510185238 | 15 | 256 | 4.8 | 12.9 | 0.00 | 0.00 | 0.00 | 35 | 1027.6 |
| 20260510184247 | 14 | 341 | 4.8 | 12.9 | 0.00 | 0.00 | 0.00 | 42 | 1027.5 |
| 20260510184239 | 15 | 215 | 6.4 | 14.5 | 0.00 | 0.00 | 0.00 | 38 | 1027.6 |
| 20260510183240 | 15 | 217 | 4.8 | 14.5 | 0.00 | 0.00 | 0.00 | 40 | 1027.6 |
| 20260510182228 | 13 | 252 | 4.8 | 14.5 | 0.00 | 0.00 | 0.00 | 45 | 1027.9 |
| 20260510181332 | 13 | 244 | 3.2 | 11.3 | 0.00 | 0.00 | 0.00 | 45 | 1027.7 |
| 20260510175220 | 12 | 288 | 4.8 | 14.5 | 0.00 | 0.00 | 0.00 | 48 | 1027.7 |
| 20260510174220 | 12 | 196 | 3.2 | 16.1 | 0.00 | 0.00 | 0.00 | 49 | 1027.7 |
| 20260510173216 | 12 | 198 | 3.2 | 16.1 | 0.00 | 0.00 | 0.00 | 50 | 1027.7 |
| 20260510172217 | 12 | 160 | 3.2 | 8.0 | 0.00 | 0.00 | 0.00 | 50 | 1027.9 |
| 20260510171211 | 12 | 344 | 3.2 | 8.0 | 0.00 | 0.00 | 0.00 | 50 | 1027.7 |
| 20260510170210 | 10 | 65 | 1.6 | 6.4 | 0.00 | 0.00 | 0.00 | 57 | 1027.9 |
| 20260510170206 | 11 | 219 | 3.2 | 8.0 | 0.00 | 0.00 | 0.00 | 55 | 1027.9 |
| 20260510165201 | 10 | 153 | 4.8 | 12.9 | 0.00 | 0.00 | 0.00 | 55 | 1027.7 |
| 20260510163200 | 10 | 273 | 3.2 | 12.9 | 0.00 | 0.00 | 0.00 | 59 | 1028.0 |
| 20260510162201 | 10 | 329 | 3.2 | 12.9 | 0.00 | 0.00 | 0.00 | 58 | 1027.9 |
| 20260510161200 | 9 | 271 | 3.2 | 8.0 | 0.00 | 0.00 | 0.00 | 59 | 1027.9 |
| 20260510160202 | 8 | 263 | 3.2 | 11.3 | 0.00 | 0.00 | 0.00 | 64 | 1027.9 |
| 20260510155156 | 8 | 236 | 3.2 | 14.5 | 0.00 | 0.00 | 0.00 | 64 | 1027.9 |
| 20260510154156 | 8 | 254 | 3.2 | 9.7 | 0.00 | 0.00 | 0.00 | 63 | 1027.9 |
| 20260510153154 | 8 | 217 | 3.2 | 11.3 | 0.00 | 0.00 | 0.00 | 64 | 1027.7 |
| 20260510152157 | 8 | 263 | 1.6 | 9.7 | 0.00 | 0.00 | 0.00 | 68 | 1027.7 |
| 20260510151156 | 7 | 13 | 3.2 | 6.4 | 0.00 | 0.00 | 0.00 | 71 | 1027.6 |
| 20260510150157 | 6 | 19 | 3.2 | 8.0 | 0.00 | 0.00 | 0.00 | 73 | 1027.6 |
| 20260510150153 | 5 | 198 | 1.6 | 6.4 | 0.00 | 0.00 | 0.00 | 76 | 1027.7 |
| 20260510144153 | 5 | 22 | 1.6 | 6.4 | 0.00 | 0.00 | 0.00 | 80 | 1027.7 |
| 20260510143150 | 4 | 174 | 0.0 | 3.2 | 0.00 | 0.00 | 0.00 | 82 | 1027.7 |
| 20260510142149 | 4 | 173 | 0.0 | 1.6 | 0.00 | 0.00 | 0.00 | 85 | 1027.7 |
| 20260510141153 | 3 | 174 | 1.6 | 6.4 | 0.00 | 0.00 | 0.00 | 89 | 1027.6 |
| 20260510141148 | 3 | 174 | 0.0 | 3.2 | 0.00 | 0.00 | 0.00 | 87 | 1027.7 |
| 20260510135146 | 3 | 175 | 0.0 | 6.4 | 0.00 | 0.00 | 0.00 | 90 | 1027.6 |
| 20260510134149 | 3 | 148 | 0.0 | 0.0 | 0.00 | 0.00 | 0.00 | 92 | 1027.6 |
| 20260510134145 | 3 | 140 | 0.0 | 4.8 | 0.00 | 0.00 | 0.00 | 91 | 1027.5 |
| 20260510132144 | 2 | 148 | 0.0 | 3.2 | 0.00 | 0.00 | 0.00 | 92 | 1027.2 |
| 20260510131150 | 2 | 196 | 3.2 | 9.7 | 0.00 | 0.00 | 0.00 | 92 | 1026.8 |
| 20260510131142 | 2 | 148 | 1.6 | 6.4 | 0.00 | 0.00 | 0.00 | 92 | 1027.2 |
| 20260510130144 | 2 | 163 | 1.6 | 6.4 | 0.00 | 0.00 | 0.00 | 92 | 1026.9 |
| 20260510124143 | 2 | 171 | 1.6 | 6.4 | 0.00 | 0.00 | 0.00 | 92 | 1026.6 |
| 20260510123138 | 2 | 155 | 3.2 | 8.0 | 0.00 | 0.00 | 0.00 | 92 | 1026.6 |
| 20260510122136 | 2 | 178 | 1.6 | 8.0 | 0.00 | 0.00 | 0.00 | 92 | 1026.4 |
| 20260510121240 | 2 | 158 | 1.6 | 8.0 | 0.00 | 0.00 | 0.00 | 92 | 1026.4 |
| 20260510121131 | 2 | 142 | 1.6 | 8.0 | 0.00 | 0.00 | 0.00 | 92 | 1026.4 |
| 20260510121125 | 2 | 173 | 1.6 | 8.0 | 0.00 | 0.00 | 0.00 | 92 | 1026.4 |
| 20260510114124 | 2 | 162 | 0.0 | 8.0 | 0.00 | 0.00 | 0.00 | 92 | 1026.4 |
| 20260510113128 | 3 | 183 | 1.6 | 8.0 | 0.00 | 0.00 | 0.00 | 91 | 1026.4 |
| 20260510112119 | 3 | 145 | 1.6 | 8.0 | 0.00 | 0.00 | 0.00 | 91 | 1026.6 |
| 20260510111118 | 3 | 200 | 0.0 | 4.8 | 0.00 | 0.00 | 0.00 | 91 | 1026.4 |
| 20260510110119 | 3 | 190 | 3.2 | 9.7 | 0.00 | 0.00 | 0.00 | 90 | 1026.4 |
| 20260510105119 | 3 | 194 | 3.2 | 9.7 | 0.00 | 0.00 | 0.00 | 89 | 1026.3 |
| 20260510104119 | 3 | 198 | 0.0 | 6.4 | 0.00 | 0.00 | 0.00 | 88 | 1026.2 |
| 20260510103123 | 4 | 190 | 0.0 | 4.8 | 0.00 | 0.00 | 0.00 | 85 | 1026.3 |
| 20260510103119 | 3 | 193 | 1.6 | 4.8 | 0.00 | 0.00 | 0.00 | 86 | 1026.3 |
| 20260510101107 | 4 | 191 | 1.6 | 6.4 | 0.00 | 0.00 | 0.00 | 84 | 1026.3 |
| 20260510100107 | 3 | 33 | 0.0 | 0.0 | 0.00 | 0.00 | 0.00 | 83 | 1026.3 |
| 20260510095102 | 3 | 33 | 1.6 | 9.7 | 0.00 | 0.00 | 0.00 | 83 | 1026.0 |
| 20260510094100 | 3 | 5 | 1.6 | 6.4 | 0.00 | 0.00 | 0.00 | 84 | 1025.8 |
| 20260510094054 | 3 | 26 | 3.2 | 9.7 | 0.00 | 0.00 | 0.00 | 84 | 1025.6 |
| 20260510092057 | 3 | 99 | 3.2 | 14.5 | 0.00 | 0.00 | 0.00 | 86 | 1025.6 |
| 20260510092052 | 3 | 36 | 3.2 | 16.1 | 0.00 | 0.00 | 0.00 | 85 | 1025.6 |
| 20260510090057 | 3 | 49 | 3.2 | 16.1 | 0.00 | 0.00 | 0.00 | 87 | 1025.4 |
| 20260510090053 | 3 | 5 | 4.8 | 16.1 | 0.00 | 0.00 | 0.00 | 86 | 1025.5 |
| 20260510084056 | 3 | 80 | 3.2 | 9.7 | 0.00 | 0.00 | 0.00 | 87 | 1025.2 |
| 20260510084052 | 3 | 53 | 3.2 | 8.0 | 0.00 | 0.00 | 0.00 | 87 | 1025.4 |
| 20260510082052 | 3 | 36 | 1.6 | 12.9 | 0.00 | 0.00 | 0.00 | 87 | 1025.4 |
| 20260510081052 | 3 | 146 | 3.2 | 14.5 | 0.00 | 0.00 | 0.00 | 87 | 1025.4 |
| 20260510080053 | 3 | 66 | 3.2 | 12.9 | 0.00 | 0.00 | 0.00 | 86 | 1025.2 |
| 20260510075053 | 3 | 92 | 6.4 | 17.7 | 0.00 | 0.00 | 0.00 | 85 | 1025.0 |
| 20260510074052 | 3 | 20 | 8.0 | 20.9 | 0.00 | 0.00 | 0.00 | 84 | 1025.0 |
| 20260510073052 | 3 | 148 | 6.4 | 19.3 | 0.00 | 0.00 | 0.00 | 84 | 1024.7 |
| 20260510072057 | 4 | 19 | 9.7 | 24.1 | 0.00 | 0.00 | 0.00 | 82 | 1024.7 |
| 20260510072053 | 4 | 65 | 9.7 | 35.4 | 0.00 | 0.00 | 0.00 | 84 | 1024.6 |
| 20260510070045 | 4 | 321 | 9.7 | 22.5 | 0.00 | 0.00 | 0.00 | 81 | 1024.7 |
| 20260510065044 | 4 | 5 | 9.7 | 24.1 | 0.00 | 0.00 | 0.00 | 79 | 1024.5 |
| 20260510064045 | 5 | 294 | 11.3 | 32.2 | 0.00 | 0.00 | 0.00 | 78 | 1024.3 |
| 20260510063045 | 5 | 333 | 12.9 | 29.0 | 0.00 | 0.00 | 0.00 | 78 | 1024.2 |
| 20260510062044 | 5 | 55 | 11.3 | 30.6 | 0.00 | 0.00 | 0.00 | 77 | 1023.9 |
| 20260510061044 | 5 | 323 | 11.3 | 25.7 | 0.00 | 0.00 | 0.00 | 77 | 1024.1 |
| 20260510060045 | 5 | 311 | 12.9 | 32.2 | 0.00 | 0.00 | 0.00 | 75 | 1023.7 |
| 20260510055044 | 6 | 282 | 12.9 | 32.2 | 0.00 | 0.00 | 0.00 | 73 | 1023.4 |
| 20260510054045 | 6 | 329 | 9.7 | 24.1 | 0.00 | 0.00 | 0.00 | 69 | 1023.3 |
| 20260510053046 | 7 | 0 | 11.3 | 29.0 | 0.00 | 0.00 | 0.00 | 66 | 1023.0 |
| 20260510053041 | 7 | 163 | 9.7 | 29.0 | 0.00 | 0.00 | 0.00 | 62 | 1023.0 |
| 20260510051039 | 8 | 46 | 9.7 | 27.4 | 0.00 | 0.00 | 0.00 | 58 | 1022.9 |
| 20260510050039 | 9 | 101 | 9.7 | 27.4 | 0.00 | 0.00 | 0.00 | 50 | 1023.0 |
| 20260510045038 | 10 | 23 | 6.4 | 20.9 | 0.00 | 0.00 | 0.00 | 42 | 1022.5 |
| 20260510044039 | 10 | 11 | 1.6 | 6.4 | 0.00 | 0.00 | 0.00 | 38 | 1022.6 |
| 20260510043043 | 10 | 42 | 1.6 | 4.8 | 0.00 | 0.00 | 0.00 | 38 | 1022.2 |
| 20260510043038 | 10 | 109 | 1.6 | 6.4 | 0.00 | 0.00 | 0.00 | 38 | 1022.4 |
| 20260510041038 | 10 | 98 | 0.0 | 6.4 | 0.00 | 0.00 | 0.00 | 37 | 1022.4 |
| 20260510040038 | 10 | 82 | 0.0 | 3.2 | 0.00 | 0.00 | 0.00 | 37 | 1022.4 |
| 20260510035039 | 11 | 82 | 0.0 | 3.2 | 0.00 | 0.00 | 0.00 | 36 | 1022.1 |
| 20260510034043 | 11 | 98 | 0.0 | 4.8 | 0.00 | 0.00 | 0.00 | 36 | 1022.1 |
| 20260510034039 | 11 | 67 | 1.6 | 6.4 | 0.00 | 0.00 | 0.00 | 36 | 1022.1 |
| 20260510032037 | 11 | 107 | 0.0 | 6.4 | 0.00 | 0.00 | 0.00 | 35 | 1022.1 |
| 20260510031038 | 11 | 182 | 0.0 | 0.0 | 0.00 | 0.00 | 0.00 | 35 | 1022.2 |
| 20260510030138 | 11 | 224 | 1.6 | 8.0 | 0.00 | 0.00 | 0.00 | 35 | 1022.0 |
| 20260510030038 | 11 | 184 | 0.0 | 1.6 | 0.00 | 0.00 | 0.00 | 35 | 1022.0 |
| 20260510030033 | 11 | 150 | 1.6 | 6.4 | 0.00 | 0.00 | 0.00 | 35 | 1021.8 |
| 20260510023029 | 11 | 83 | 1.6 | 6.4 | 0.00 | 0.00 | 0.00 | 34 | 1021.2 |
| 20260510022030 | 11 | 93 | 1.6 | 8.0 | 0.00 | 0.00 | 0.00 | 33 | 1020.8 |
| 20260510022026 | 12 | 83 | 4.8 | 9.7 | 0.00 | 0.00 | 0.00 | 33 | 1020.7 |
| 20260510020025 | 12 | 67 | 3.2 | 17.7 | 0.00 | 0.00 | 0.00 | 31 | 1020.5 |
| 20260510015026 | 12 | 14 | 3.2 | 8.0 | 0.00 | 0.00 | 0.00 | 31 | 1020.4 |
| 20260510014023 | 12 | 11 | 4.8 | 14.5 | 0.00 | 0.00 | 0.00 | 30 | 1020.3 |
| 20260510013023 | 12 | 40 | 6.4 | 17.7 | 0.00 | 0.00 | 0.00 | 30 | 1020.0 |
| 20260510012023 | 13 | 5 | 8.0 | 29.0 | 0.00 | 0.00 | 0.00 | 30 | 1019.9 |
| 20260510011028 | 13 | 76 | 6.4 | 19.3 | 0.00 | 0.00 | 0.00 | 28 | 1019.7 |
| 20260510011024 | 13 | 171 | 6.4 | 22.5 | 0.00 | 0.00 | 0.00 | 29 | 1019.9 |
| 20260510005022 | 14 | 331 | 6.4 | 20.9 | 0.00 | 0.00 | 0.00 | 27 | 1020.0 |
| 20260510004021 | 14 | 14 | 6.4 | 19.3 | 0.00 | 0.00 | 0.00 | 26 | 1019.6 |
| 20260510003021 | 15 | 57 | 4.8 | 16.1 | 0.00 | 0.00 | 0.00 | 25 | 1019.7 |
| 20260510002021 | 15 | 16 | 4.8 | 14.5 | 0.00 | 0.00 | 0.00 | 24 | 1019.6 |
| 20260510001022 | 15 | 341 | 6.4 | 14.5 | 0.00 | 0.00 | 0.00 | 22 | 1019.5 |
| 20260510000024 | 17 | 315 | 6.4 | 25.7 | 0.00 | 0.00 | 0.00 | 17 | 1019.2 |
| 20260510000018 | 16 | 5 | 4.8 | 16.1 | 0.00 | 0.00 | 0.00 | 18 | 1019.3 |
| 20260509235017 | 16 | 12 | 4.8 | 25.7 | 0.00 | 0.00 | 0.00 | 16 | 1019.2 |
| 20260509233136 | 18 | 271 | 1.6 | 6.4 | 0.00 | 0.00 | 0.00 | 16 | 1019.1 |
| 20260509233022 | 18 | 298 | 3.2 | 6.4 | 0.00 | 0.00 | 0.00 | 16 | 1019.2 |
| 20260509233017 | 17 | 14 | 6.4 | 20.9 | 0.00 | 0.00 | 0.00 | 16 | 1019.2 |
| 20260509230015 | 18 | 317 | 4.8 | 14.5 | 0.00 | 0.00 | 0.00 | 17 | 1019.2 |
| 20260509225015 | 18 | 221 | 3.2 | 14.5 | 0.00 | 0.00 | 0.00 | 16 | 1019.1 |
| 20260509224015 | 19 | 347 | 1.6 | 8.0 | 0.00 | 0.00 | 0.00 | 15 | 1019.1 |
| 20260509223010 | 20 | 5 | 3.2 | 8.0 | 0.00 | 0.00 | 0.00 | 16 | 1019.1 |
| 20260509222009 | 20 | 329 | 6.4 | 27.4 | 0.00 | 0.00 | 0.00 | 17 | 1019.1 |
| 20260509221010 | 21 | 289 | 6.4 | 22.5 | 0.00 | 0.00 | 0.00 | 13 | 1019.2 |
| 20260509220008 | 21 | 234 | 9.7 | 20.9 | 0.00 | 0.00 | 0.00 | 15 | 1018.8 |
| 20260509215007 | 21 | 247 | 4.8 | 19.3 | 0.00 | 0.00 | 0.00 | 14 | 1018.9 |